Other Surface Observations
Issued by NWS

Home | Current Version | Previous Version | Text Only | Print | Product List | Glossary On
Versions: 1 2 3 4 5 6 7 8 9 10 11 12 13 14 15 16 17 18 19 20 21 22 23 24 25 26 27 28 29 30 31 32 33 34 35 36 37 38 39 40 41 42 43 44 45 46 47 48 49 50
263
SXUS52 KTAE 020619
OSOTAE
OSOTAE
North Florida/South Alabama/Southwest Georgia Weather Roundup
National Weather Service Tallahassee Florida
200 AM EDT MON MAY 02 2016

Note: "fair" indicates few or no clouds below 12,000 feet with no
significant weather and/or obstructions to visibility.

!FLZ017-115-028-034-025-020700
...North Florida...

CITY           SKY/WX    TMP DP  RH WIND       PRES   REMARKS
TALLAHASSEE    CLEAR     70  66  87 CALM      30.01S
APALACHICOLA   CLEAR     70  68  93 CALM      29.99F FOG
PERRY          PTCLDY    71  68  91 CALM      30.01S
CROSS CITY       N/A     70  67  90 CALM      30.01F
JACKSONVILLE   PTCLDY    73  71  93 CALM      30.02F
$$

!FLZ112-006-005-002-011-020700
...Florida Panhandle...

CITY           SKY/WX    TMP DP  RH WIND       PRES   REMARKS
MARIANNA       PTCLDY    71  69  93 CALM      30.00F
BONIFAY        NOT AVBL
PANAMA CITY NW FAIR      71  70  96 E5        29.99F
TYNDALL AFB    PTCLDY    72  70  95 CALM      29.98F
TYND DRONE APT MOCLDY    71  70  98 E5        29.98F
DE FUNIAK SPR  CLOUDY    72  71  99 CALM      30.02S
EGLIN AFB      CLOUDY    75  72  90 SE6       30.00R
DESTIN         CLOUDY    77  74  90 SE6       29.99S
HURLBURT       CLOUDY    74  72  93 SE3       29.98F
CRESTVIEW      CLOUDY    72  70  93 E3        30.00F FOG
PENSACOLA      CLOUDY    76  72  87 E10       29.97F
$$

!ALZ063-066-020700
...South Alabama...

CITY           SKY/WX    TMP DP  RH WIND       PRES   REMARKS
DOTHAN         PTCLDY    70  67  90 CALM      30.04F
OZARK CAIRNS   CLOUDY    71  69  96 CALM      30.00F
FT RUCKER HELI NOT AVBL
RUCKER HELI 3  MOCLDY    69  67  94 NE1       30.02F
RUCKER HELI 2  NOT AVBL
FLORALA APT    MOCLDY    70  68  93 S5        30.00F
ANDALUSIA      CLOUDY    73  68  84 CALM      29.99F
TROY           CLOUDY    68  66  93 CALM      30.01F
EUFALA         FAIR      66  63  90 CALM      30.01S
MOBILE         CLOUDY    73  72  96 SW3       30.00R
$$

!GAZ120>161-020700
...Southwest and South Central Georgia...

CITY           SKY/WX    TMP DP  RH WIND       PRES   REMARKS
THOMASVILLE    FAIR      66  64  94 CALM      30.02F
BAINBRIDGE     CLOUDY    72  68  88 CALM      30.02S
MOODY AFB      PTCLDY    70  66  86 E7        30.00F
VALDOSTA       MOCLDY    71  68  90 SE5       30.02F
MOULTRIE       CLEAR     70  64  83 CALM      30.02F
BLAKELY        MOCLDY    70  70 100 CALM      30.01F
ALBANY         PTCLDY    69  64  84 SE6       30.03S
TIFTON         FAIR      70  68  96 SE3       30.01F
FITZGERALD     FAIR      70  68  95 E3        30.04F
CORDELE        FAIR      73  70  91 S5        30.03S
AMERICUS       FAIR      70  70 100 S3        30.03F
HOMERVILLE     FAIR      70  68  94 SE3       30.03F
$$

!GMZ750-755-770-775-020700
...Coastal and Buoy Obs...

STATION/POSITION TIME  TEMP    WIND        PRES    VSBY  WAVE
                       AIR SEA DIR/SP/G                  HT/PER
                 (UTC) (F)     (DEG/KT/KT) (MB)    (MI)  (FT/S)
KEATON BEACH     0600   71      80/  6/  7 1015.6F
CEDAR KEY        0600   75      50/  8/  9 1016.7F
C TOWER          0600   74     150/  4/  5 1016.2F
APALACHICOLA BUO 0550   75 76  100/  4/  6 1015.6F         3/ 7
PANAMA CITY BUOY 0550   77 79  150/ 10/ 10 1015.8F         4/ 7
MOBILE BUOY      0600   76 75  160/ 14/ 17 1013.6F
ORANGE BCH AL BU 0550   75 74  140/ 16/ 17 1012.7F         4/ 7
$$




USA.gov is the U.S. government's official web portal to all federal, state and local government web resources and services.